Regional Weather Roundup
Issued by NWS

Home | Current Version | Previous Version | Text Only | Print | Product List | Glossary On
Versions: 1 2 3 4 5 6 7 8 9 10 11 12 13 14 15 16 17 18 19 20 21 22 23 24 25 26 27 28 29 30 31 32 33 34 35 36 37 38 39 40 41 42 43 44 45 46 47 48 49 50
000
ASUS42 KFFC 060903
RWRGA
WEATHER ROUNDUP FOR GEORGIA
NATIONAL WEATHER SERVICE PEACHTREE CITY GA
500 AM EDT WED MAY 06 2015

NOTE: "FAIR" INDICATES FEW OR NO CLOUDS BELOW 12,000 FEET WITH NO
SIGNIFICANT WEATHER AND/OR OBSTRUCTIONS TO VISIBILITY.

* = USE WITH CAUTION. THE STATIONS MARKED WITH AN ASTERISK MAY NOT
REPORT WEATHER SUCH AS PRECIPITATION, FOG, OR THUNDER AND ARE NOT
QUALITY CONTROLLED BY NWS.

THE REMARK "TC" DENOTES TEMPERATURE READING IN DEGREES CELSIUS.

GAZ001>058-061000-
NORTH GEORGIA

CITY           SKY/WX    TMP DP  RH WIND       PRES   REMARKS
ATLANTA        PTCLDY    63  51  65 E3        30.21S
ATHENS         CLEAR     55  52  89 CALM      30.22S
CHAMBLEE       CLEAR     54  52  93 CALM      30.22S
PEACHTREE CITY CLEAR     51  49  92 CALM      30.22S
ROME           CLEAR     54  52  93 N3        30.20F
WEST ATLANTA   CLEAR     54  51  90 CALM      30.21S
GAINESVILLE    CLEAR     58  52  80 NE3       30.25S
CARTERSVILLE   CLEAR     51  49  92 CALM      30.22S


CITY           SKY/WX    TMP DP  RH WIND       PRES   REMARKS
DALTON*        CLEAR     54  54 100 CALM      30.22S
MARIETTA       CLEAR     56  53  92 E2        30.22R
BLAIRSVILLE*     N/A     49  43  80 CALM      30.27S HAZE
$$

GAZ059>098-102>109-061000-
CENTRAL GEORGIA

CITY           SKY/WX    TMP DP  RH WIND       PRES   REMARKS
AUGUSTA-BUSH   PTCLDY    52  51  97 CALM      30.20F
AUGUSTA-DANIEL PTCLDY    62  55  77 NE3       30.21S
COLUMBUS       CLEAR     59  53  80 CALM      30.18S
MACON          CLEAR     52  51  97 W3        30.19S
ROBINS AFB     CLEAR     54  53  96 NW3       30.19S


CITY           SKY/WX    TMP DP  RH WIND       PRES   REMARKS
LAGRANGE*      CLEAR     54  54  98 CALM      30.20S FOG
SYLVANIA*      MOCLDY    60  60  99 CALM      30.19S
MILLEDGEVILLE* CLEAR     55  55 100 CALM      30.21S
$$

GAZ099>101-110>166-061000-
SOUTH GEORGIA

CITY           SKY/WX    TMP DP  RH WIND       PRES   REMARKS
SAVANNAH       PTCLDY    62  60  93 N7        30.16F
VALDOSTA       MOCLDY    62  60  93 N5        30.13F
ALMA           PTCLDY    61  59  93 NE3       30.15S
ST SIMONS      MOCLDY    69  65  86 N8        30.12F
FT STEWART     PTCLDY    62  59  92 N5        30.14S
ALBANY         CLEAR     60  56  86 N3        30.17F
HUNTER AFB     PTCLDY    65  64  97 CALM      30.13F
MOODY AFB      CLOUDY    63  59  88 NE3       30.12F
BRUNSWICK      PTCLDY    66  63  88 CALM      30.14S


CITY           SKY/WX    TMP DP  RH WIND       PRES   REMARKS
BAINBRIDGE*    CLEAR     64  61  88 NE3       30.15S
MOULTRIE*      CLEAR     63  59  88 CALM      30.15F
VIDALIA*       MOCLDY    63  59  88 N3        30.17S
WAYCROSS*      PTCLDY    64  63  98 CALM      30.14F
DOUGLAS*       CLOUDY    64  61  88 NE5       30.16F
$$



USA.gov is the U.S. government's official web portal to all federal, state and local government web resources and services.